{"data":{"norad_id":59714,"intl_designator":"2024-088G","name":"STARLINK-11094 [DTC]","alt_names":[],"object_type":"PAYLOAD","status":"ACTIVE","operator":null,"country":"US","launch_date":"2024-05-10","launch_site_code":"AFWTR","launch_vehicle":null,"mission":null,"orbit_class":"UNKNOWN","rcs_meters":null,"size_class":null,"mass_kg":null,"dimensions":null,"purposes":["comms"],"wikipedia_slug":null,"has_3d_model":false,"image_url":null,"decayed_at":null,"tle_current":{"epoch":"2026-09-21T17:43:28.898688Z","epoch_age_seconds":64380,"freshness":"FRESH","line1":"1 59714U 24088G   26264.73852892  .00002184  00000+0  22868-4 0  9996","line2":"2 59714  53.1599  79.8549 0000844  81.6541 278.4573 15.69722599137061","mean_motion":15.69722599,"eccentricity":8.44e-5,"inclination_deg":53.1599,"raan_deg":79.8549,"arg_perigee_deg":81.6541,"mean_anomaly_deg":278.4573,"bstar":2.2868e-5,"rev_number":13706,"period_min":91.735953914237,"perigee_km":359.12202448793,"apogee_km":360.25936980321,"semimajor_km":6737.8276971456,"source":"CELESTRAK","updated_at":"2026-09-22T09:00:49.058441Z"}}}